Simultaneous Nadir Overpasses (SNOs) Predictions

Prediction of SNOs between GOES-16 and TERRA Satellite Orbit:

Table of predicted SNOs for the next 14.0 days since TLE Epoch: 12/9/2023
Index Date Time (GOES-16) GOES-16 Lat,Lon TERRA Lat,Lon Distance(km) Time Diff (sec)
1 12/10/2023 02:52:13 0.05, -75.20 0.29, -74.03 132.95 80
2 12/10/2023 15:14:58 -0.04, -75.22 0.75, -78.91 419.16 80
3 12/12/2023 14:55:32 -0.04, -75.23 -0.13, -74.86 41.26 80
4 12/15/2023 03:01:37 0.03, -75.21 -0.07, -75.73 58.89 80
5 12/17/2023 02:42:10 0.03, -75.21 0.78, -71.67 402.41 80
6 12/17/2023 15:02:15 -0.03, -75.24 0.24, -76.56 149.36 80
7 12/19/2023 14:45:28 -0.02, -75.26 -0.62, -72.51 313.15 80
8 12/20/2023 03:08:20 0.02, -75.24 -0.46, -77.41 247.04 80
9 12/22/2023 02:48:53 0.02, -75.27 0.42, -73.36 216.33 80
10 12/22/2023 15:08:58 -0.02, -75.30 0.59, -78.25 335.07 80
